Monticello, KY

12:42 AM EDT on June 27, 2017 (GMT -0400)
Wayne County

Weather History for KEKQ - March, 2013

Change the Weather History Date:

Saturday, March 23, 2013

  Actual Average Record
Temperature  
Mean Temperature 46 °F -  
Max Temperature 54 °F 60 °F 79 °F (1988)
Min Temperature 37 °F 33 °F 16 °F (1986)
Degree Days  
Heating Degree Days 20    
Moisture  
Dew Point 32 °F    
Average Humidity 61    
Maximum Humidity 76    
Minimum Humidity 49    
Precipitation  
Precipitation 0.00 in - - ()
Sea Level Pressure  
Sea Level Pressure 29.98 in    
Wind  
Wind Speed 2 mph (ENE)    
Max Wind Speed 12 mph    
Max Gust Speed -    
Visibility 10 miles    
Events      
Averages and records for this station are not official NWS values.
T = Trace of Precipitation, MM = Missing Value Source: NWS Daily Summary

Daily Weather History Graph

Daily Weather History Graph

Search for Another Location

Airport or City:

Trip Planner

Search our weather history database for the weather conditions in past years. The results will help you decide how hot, cold, wet, or windy it might be!

Date:

Astronomy

Mar. 23, 2013 Rise Set
Actual Time 6:38 AM CDT 6:54 PM CDT
Civil Twilight 6:12 AM CDT 7:20 PM CDT
Nautical Twilight 5:42 AM CDT 7:50 PM CDT
Astronomical Twilight 5:11 AM CDT 8:21 PM CDT
Moon 3:24 PM CDT (3/23) 4:08 AM CDT (3/23)
Length of Visible Light 13h 07m
Length of Day
12h 15m
Waxing Gibbous, 85% of the Moon is Illuminated
Mar 23
Waxing Gibbous
Mar 27
Full
Apr 2
Last Quarter
Apr 10
New
Apr 18
First Quarter

Hourly Weather History & Observations

Time (CDT) Temp. Windchill Dew Point Humidity Pressure Visibility Wind Dir Wind Speed Gust Speed Precip Events Conditions
12:56 AM 37.9 °F - 27.1 °F 65% 30.05 in 10.0 mi Calm Calm - N/A   Overcast
1:56 AM 37.9 °F - 25.2 °F 60% 30.04 in 10.0 mi Calm Calm - N/A   Overcast
2:56 AM 37.9 °F - 26.1 °F 62% 30.03 in 10.0 mi Calm Calm - N/A   Overcast
3:56 AM 37.9 °F - 25.2 °F 60% 30.01 in 10.0 mi Calm Calm - N/A   Overcast
4:56 AM 37.9 °F - 25.2 °F 60% 30.01 in 10.0 mi Calm Calm - N/A   Mostly Cloudy
5:56 AM 37.9 °F - 29.1 °F 71% 30.03 in 10.0 mi Calm Calm - N/A   Overcast
6:56 AM 37.9 °F - 26.1 °F 62% 30.05 in 10.0 mi Calm Calm - N/A   Overcast
7:30 AM 39.2 °F 37.0 °F 26.6 °F 61% 30.02 in 10.0 mi ENE 3.5 mph - N/A   Overcast
7:56 AM 38.8 °F - 27.1 °F 63% 30.06 in 10.0 mi Calm Calm - N/A   Overcast
8:56 AM 41.0 °F - 28.0 °F 60% 30.06 in 10.0 mi Calm Calm - N/A   Overcast
9:56 AM 43.0 °F - 32.0 °F 65% 30.06 in 10.0 mi Calm Calm - N/A   Overcast
10:38 AM 44.6 °F - 37.4 °F 76% 30.02 in 10.0 mi Calm Calm - N/A   Overcast
10:56 AM 45.9 °F - 36.9 °F 71% 30.05 in 10.0 mi Calm Calm - N/A   Overcast
11:56 AM 47.8 °F - 36.9 °F 66% 30.04 in 10.0 mi ESE 5.8 mph - N/A   Overcast
12:21 PM 50.0 °F - 37.4 °F 62% 30.00 in 10.0 mi East 5.8 mph - N/A   Overcast
12:56 PM 50.9 °F - 37.9 °F 61% 30.02 in 10.0 mi NE 11.5 mph - N/A   Overcast
1:56 PM 52.0 °F - 34.9 °F 52% 30.01 in 10.0 mi NE 11.5 mph - N/A   Mostly Cloudy
2:56 PM 52.9 °F - 34.9 °F 50% 29.98 in 10.0 mi NE 8.1 mph - N/A   Overcast
3:56 PM 54.9 °F - 36.0 °F 49% 29.95 in 10.0 mi NE 8.1 mph - N/A   Scattered Clouds
4:56 PM 54.0 °F - 36.0 °F 51% 29.94 in 10.0 mi ENE 8.1 mph - N/A   Clear
5:56 PM 52.9 °F - 36.0 °F 53% 29.92 in 10.0 mi NE 6.9 mph - N/A   Clear
6:56 PM 50.0 °F - 36.9 °F 61% 29.92 in 10.0 mi ENE 5.8 mph - N/A   Clear
7:56 PM 47.8 °F - 36.0 °F 63% 29.89 in 10.0 mi ENE 6.9 mph - N/A   Clear
8:56 PM 46.9 °F - 36.0 °F 66% 29.87 in 10.0 mi NE 6.9 mph - N/A   Clear
9:56 PM 47.8 °F - 34.9 °F 61% 29.83 in 10.0 mi ENE 6.9 mph - N/A   Clear
10:56 PM 47.8 °F - 34.0 °F 59% 29.81 in 10.0 mi ENE 6.9 mph - N/A   Clear
11:56 PM 48.9 °F - 32.9 °F 54% 29.82 in 10.0 mi East 5.8 mph - N/A   Clear